Weather History for KTTF - September, 2012

Change the Weather History Date:

Friday, September 14, 2012

  Actual Average Record
Temperature  
Mean Temperature 61 °F -  
Max Temperature 71 °F 76 °F 91 °F (1962)
Min Temperature 51 °F 54 °F 37 °F (1975)
Degree Days  
Heating Degree Days 4    
Growing Degree Days 11 (Base 50)    
Moisture  
Dew Point 52 °F    
Average Humidity 75    
Maximum Humidity 100    
Minimum Humidity 31    
Precipitation  
Precipitation 0.00 in - - ()
Sea Level Pressure  
Sea Level Pressure 30.23 in    
Wind  
Wind Speed 6 mph (NNW)    
Max Wind Speed 15 mph    
Max Gust Speed 20 mph    
Visibility 9 miles    
Events Rain    
Averages and records for this station are not official NWS values.
T = Trace of Precipitation, MM = Missing Value Source: NWS Daily Summary

Daily Weather History Graph

Daily Weather History Graph

Search for Another Location

Airport or City:

Trip Planner

Search our weather history database for the weather conditions in past years. The results will help you decide how hot, cold, wet, or windy it might be!

Date:

Astronomy

Sep. 14, 2012 Rise Set
Actual Time 7:13 AM EDT 7:44 PM EDT
Civil Twilight 6:45 AM EDT 8:12 PM EDT
Nautical Twilight 6:12 AM EDT 8:45 PM EDT
Astronomical Twilight 5:38 AM EDT 9:19 PM EDT
Moon 5:35 AM EDT (9/14) 6:40 PM EDT (9/14)
Length of Visible Light 13h 26m
Length of Day
12h 30m
Waning Crescent, 3% of the Moon is Illuminated
Sep 14
Waning Crescent
Sep 15
New
Sep 22
First Quarter
Sep 29
Full
Oct 8
Last Quarter

Hourly Weather History & Observations

Time (EDT) Temp. Dew Point Humidity Pressure Visibility Wind Dir Wind Speed Gust Speed Precip Events Conditions
12:14 AM 66.2 °F 60.8 °F 83% 30.20 in 10.0 mi NNE 4.6 mph - N/A   Mostly Cloudy
12:35 AM 66.2 °F 60.8 °F 83% 30.22 in 10.0 mi NW 9.2 mph - N/A   Overcast
12:55 AM 66.2 °F 60.8 °F 83% 30.21 in 10.0 mi North 4.6 mph - N/A   Overcast
1:15 AM 66.2 °F 60.8 °F 83% 30.22 in 10.0 mi NNW 5.8 mph - N/A   Overcast
1:35 AM 66.2 °F 60.8 °F 83% 30.22 in 10.0 mi North 4.6 mph - N/A   Overcast
1:55 AM 64.4 °F 60.8 °F 88% 30.21 in 10.0 mi NNE 4.6 mph - N/A   Overcast
2:15 AM 64.4 °F 60.8 °F 88% 30.21 in 10.0 mi North 4.6 mph - N/A   Overcast
2:35 AM 64.4 °F 57.2 °F 77% 30.20 in 10.0 mi NNE 6.9 mph - N/A   Overcast
2:55 AM 64.4 °F 57.2 °F 77% 30.20 in 10.0 mi NE 3.5 mph - N/A   Overcast
3:15 AM 64.4 °F 57.2 °F 77% 30.20 in 10.0 mi Calm Calm - N/A   Mostly Cloudy
3:36 AM 62.6 °F 57.2 °F 82% 30.20 in 10.0 mi Calm Calm - N/A   Overcast
3:56 AM 62.6 °F 57.2 °F 82% 30.19 in 10.0 mi NNE 3.5 mph - N/A   Overcast
4:11 AM 62.6 °F 57.2 °F 82% 30.19 in 10.0 mi NNE 3.5 mph - N/A   Overcast
4:31 AM 62.6 °F 57.2 °F 82% 30.20 in 10.0 mi NNW 3.5 mph - N/A   Overcast
4:51 AM 62.6 °F 57.2 °F 82% 30.20 in 10.0 mi NNW 3.5 mph - N/A   Overcast
5:11 AM 62.6 °F 57.2 °F 82% 30.21 in 10.0 mi NNW 5.8 mph - N/A   Overcast
5:31 AM 62.6 °F 57.2 °F 82% 30.20 in 10.0 mi North 4.6 mph - N/A   Overcast
5:51 AM 62.6 °F 57.2 °F 82% 30.21 in 10.0 mi NW 8.1 mph - N/A   Overcast
6:11 AM 60.8 °F 57.2 °F 88% 30.21 in 7.0 mi North 4.6 mph - N/A Rain Rain
6:32 AM 60.8 °F 59.0 °F 94% 30.20 in 5.0 mi North 4.6 mph - N/A Rain Light Rain
6:52 AM 60.8 °F 59.0 °F 94% 30.21 in 7.0 mi NNW 3.5 mph - N/A Rain Rain
7:12 AM 59.0 °F 57.2 °F 94% 30.21 in 7.0 mi North 8.1 mph - N/A Rain Rain
7:32 AM 57.2 °F 57.2 °F 100% 30.22 in 10.0 mi North 10.4 mph - N/A Rain Rain
7:52 AM 57.2 °F 55.4 °F 94% 30.22 in 5.0 mi NNW 8.1 mph - N/A Rain Rain
8:12 AM 57.2 °F 55.4 °F 94% 30.23 in 7.0 mi North 8.1 mph - N/A Rain Rain
8:32 AM 57.2 °F 55.4 °F 94% 30.23 in 10.0 mi NNW 10.4 mph - N/A Rain Rain
8:52 AM 55.4 °F 55.4 °F 100% 30.24 in 7.0 mi NNW 8.1 mph - N/A Rain Light Rain
9:12 AM 55.4 °F 53.6 °F 94% 30.24 in 7.0 mi NNW 11.5 mph 19.6 mph N/A Rain Light Rain
9:33 AM 55.4 °F 53.6 °F 94% 30.25 in 10.0 mi NNW 9.2 mph - N/A Rain Rain
9:53 AM 53.6 °F 51.8 °F 94% 30.26 in 7.0 mi NNW 11.5 mph 18.4 mph N/A   Drizzle
10:13 AM 53.6 °F 51.8 °F 94% 30.26 in 10.0 mi NNW 8.1 mph - N/A Rain Light Rain
10:33 AM 53.6 °F 51.8 °F 94% 30.27 in 7.0 mi NNW 8.1 mph - N/A   Drizzle
10:53 AM 53.6 °F 51.8 °F 94% 30.27 in 7.0 mi NNW 6.9 mph - N/A Rain Light Rain
11:13 AM 53.6 °F 51.8 °F 94% 30.28 in 10.0 mi NNW 5.8 mph - N/A Rain Rain
11:33 AM 53.6 °F 51.8 °F 94% 30.27 in 10.0 mi NNW 5.8 mph - N/A Rain Rain
11:53 AM 55.4 °F 51.8 °F 88% 30.28 in 10.0 mi NW 4.6 mph - N/A Rain Light Rain
12:14 PM 55.4 °F 53.6 °F 94% 30.27 in 10.0 mi NNW 5.8 mph - N/A Rain Light Rain
12:34 PM 57.2 °F 53.6 °F 88% 30.27 in 10.0 mi WNW 3.5 mph - N/A   Scattered Clouds
12:54 PM 59.0 °F 55.4 °F 88% 30.27 in 10.0 mi NW 5.8 mph - N/A   Scattered Clouds
1:34 PM 64.4 °F 55.4 °F 73% 30.25 in 10.0 mi NW 9.2 mph - N/A   Scattered Clouds
1:54 PM 64.4 °F 53.6 °F 68% 30.25 in 10.0 mi WNW 8.1 mph - N/A   Scattered Clouds
2:14 PM 66.2 °F 50.0 °F 56% 30.24 in 10.0 mi NW 12.7 mph 18.4 mph N/A   Clear
2:34 PM 68.0 °F 46.4 °F 46% 30.24 in 10.0 mi NNW 9.2 mph - N/A   Clear
2:55 PM 69.8 °F 44.6 °F 40% 30.24 in 10.0 mi NNW 13.8 mph 19.6 mph N/A   Clear
3:15 PM 69.8 °F 46.4 °F 43% 30.23 in 10.0 mi NW 5.8 mph - N/A   Clear
3:35 PM 69.8 °F 42.8 °F 38% 30.22 in 10.0 mi NW 3.5 mph - N/A   Clear
3:55 PM 71.6 °F 44.6 °F 38% 30.22 in 10.0 mi NNW 6.9 mph - N/A   Clear
4:15 PM 71.6 °F 42.8 °F 35% 30.23 in 7.0 mi North 15.0 mph 19.6 mph N/A   Clear
4:35 PM 71.6 °F 44.6 °F 38% 30.22 in 10.0 mi NNW 8.1 mph 17.3 mph N/A   Clear
4:55 PM 71.6 °F 39.2 °F 31% 30.23 in 10.0 mi NNW 12.7 mph 17.3 mph N/A   Clear
5:15 PM 71.6 °F 41.0 °F 33% 30.24 in 10.0 mi NW 13.8 mph 17.3 mph N/A   Clear
5:36 PM 71.6 °F 41.0 °F 33% 30.24 in 10.0 mi NNW 12.7 mph 17.3 mph N/A   Clear
5:56 PM 69.8 °F 42.8 °F 38% 30.24 in 10.0 mi NNW 9.2 mph - N/A   Scattered Clouds
6:11 PM 69.8 °F 42.8 °F 38% 30.24 in 10.0 mi North 8.1 mph 17.3 mph N/A   Clear
6:31 PM 66.2 °F 42.8 °F 43% 30.25 in 10.0 mi NNW 5.8 mph - N/A   Clear
6:51 PM 66.2 °F 44.6 °F 46% 30.25 in 10.0 mi Calm Calm - N/A   Clear
7:11 PM 66.2 °F 46.4 °F 49% 30.25 in 10.0 mi Calm Calm - N/A   Scattered Clouds
7:31 PM 64.4 °F 46.4 °F 52% 30.25 in 10.0 mi Calm Calm - N/A   Scattered Clouds
7:51 PM 60.8 °F 48.2 °F 63% 30.24 in 10.0 mi Calm Calm - N/A   Clear
8:11 PM 57.2 °F 48.2 °F 72% 30.25 in 10.0 mi Calm Calm - N/A   Clear
8:32 PM 57.2 °F 51.8 °F 82% 30.25 in 10.0 mi Calm Calm - N/A   Scattered Clouds
8:52 PM 55.4 °F 50.0 °F 82% 30.25 in 10.0 mi Calm Calm - N/A   Clear
9:12 PM 55.4 °F 50.0 °F 82% 30.25 in 10.0 mi Calm Calm - N/A   Clear
9:32 PM 53.6 °F 50.0 °F 88% 30.25 in 10.0 mi Calm Calm - N/A   Clear
9:52 PM 53.6 °F 50.0 °F 88% 30.25 in 10.0 mi Calm Calm - N/A   Clear
10:12 PM 53.6 °F 50.0 °F 88% 30.26 in 10.0 mi Calm Calm - N/A   Scattered Clouds
10:32 PM 53.6 °F 50.0 °F 88% 30.26 in 10.0 mi Calm Calm - N/A   Scattered Clouds
10:52 PM 51.8 °F 48.2 °F 88% 30.26 in 10.0 mi West 4.6 mph - N/A   Clear
11:12 PM 53.6 °F 48.2 °F 82% 30.26 in 10.0 mi West 4.6 mph - N/A   Clear
11:53 PM 53.6 °F 48.2 °F 82% 30.26 in 10.0 mi West 5.8 mph - N/A   Clear